#timestamp,LO_Frequency,Hit,StdDev 
1512907215.3,286046995.3,N
1512907235.1,286046995.0,N
1512907236.0,286046995.0,N
1512907255.8,286046997.6,N
1512907275.7,286046999.0,N
1512907295.5,286046998.4,N
1512907315.4,286046999.0,N
1512907335.2,286046999.1,N
1512907355.0,286046997.5,N
1512907355.9,286046997.5,N
1512907375.8,286046997.2,N
1512907395.6,286046995.2,N
1512907415.4,286046995.8,N
1512907435.3,286046996.0,N
1512907455.1,286046993.8,Y
1512907475.9,286046995.1,P
1512907495.7,286046996.4,N
1512907515.5,286046994.0,P
1512907535.4,286046992.3,Y
1512907555.2,286046999.5,P
1512907575.1,286047000.6,N
1512907576.0,286047000.6,N
1512907595.8,286046998.1,N
1512907615.6,286046996.6,N
1512907635.5,286046997.6,N
1512907655.3,286046996.0,N
1512907675.1,286046996.3,N
1512907695.9,286046997.6,N
1512907715.7,286046997.9,N
1512907735.6,286046997.6,N
1512907755.4,286046996.6,N
1512907775.2,286046999.3,N
1512907795.1,286046998.8,N
1512907796.0,286046998.8,N
1512907815.8,286047002.0,N
1512907835.6,286047002.1,N
1512907855.5,286047003.7,N
1512907875.3,286047005.8,N
1512907895.2,286047001.8,N
1512907915.9,286047002.8,N
1512907935.7,286047002.5,N
1512907955.6,286046999.7,N
1512907975.4,286047003.5,N
1512907995.3,286047005.8,N
1512908015.1,286047005.8,N
1512908016.0,286047005.8,N
1512908035.8,286047004.8,N
1512908055.7,286047003.5,N
1512908075.5,286047002.4,N
1512908095.3,286047001.6,N
1512908115.2,286047003.2,N
1512908135.0,286047003.5,N
1512908135.9,286047003.5,N
1512908155.8,286047004.1,N
1512908175.6,286047004.7,N
1512908195.4,286047007.6,N
1512908215.3,286047004.9,N
1512908235.1,286047005.3,N
1512908255.8,286047006.0,N
1512908275.7,286047002.9,N
1512908295.5,286047007.4,N
1512908315.4,286047005.2,N
1512908335.2,286047003.3,N
1512908355.0,286047003.2,N
1512908355.9,286047003.2,N
1512908375.8,286047005.9,Y
1512908395.6,286047000.8,P
1512908415.5,286046998.4,N
1512908435.3,286046996.9,N
1512908455.1,286046998.2,N
1512908475.9,286047002.7,N
1512908495.7,286047001.7,N
1512908515.5,286047003.9,N
1512908535.4,286047005.0,N
1512908555.2,286047005.4,N
1512908575.1,286047006.1,N
1512908576.0,286047006.1,N
1512908595.8,286047007.2,N
1512908615.6,286047005.8,N
1512908635.5,286047004.9,N
1512908655.3,286047004.8,N
1512908675.1,286047005.8,N
1512908695.9,286047004.1,N
1512908715.7,286047004.8,N
1512908735.6,286047004.7,N
1512908755.4,286047004.6,N
1512908775.2,286047005.3,N
1512908795.1,286047001.7,N
1512908796.0,286047001.7,N
1512908815.8,286047001.4,N
1512908835.6,286047004.0,N
1512908855.5,286047003.7,N
1512908875.3,286047003.9,N
1512908895.2,286047003.7,N
1512908915.9,286047003.4,N
1512908935.7,286047005.5,N
1512908955.6,286047002.9,N
1512908975.4,286047003.8,N
1512908995.2,286047004.3,N
1512909015.1,286047003.9,N
1512909016.0,286047003.9,N
1512909035.8,286047001.6,N
1512909055.7,286047001.6,N
1512909075.5,286047004.3,N
1512909095.3,286047001.3,N
1512909115.2,286047004.1,N
1512909135.0,286047003.6,N
1512909135.9,286047003.6,N
1512909155.8,286047005.4,Y
1512909175.6,286047001.7,P
1512909195.4,286047003.3,P
1512909215.3,286047005.3,P
1512909235.1,286047004.8,Y
1512909255.8,286047006.0,P
1512909275.7,286047004.8,P
1512909295.5,286047005.4,P
1512909315.4,286047005.8,Y
1512909335.2,286047002.3,P
1512909355.0,286047000.4,N
1512909355.9,286047000.4,N
1512909375.8,286047000.5,N
1512909395.6,286046998.3,N
1512909415.5,286046998.3,N
1512909435.3,286046998.2,N
1512909455.1,286046997.2,N
1512909475.9,286046997.1,N
1512909495.7,286046997.4,N
1512909515.5,286046999.3,N
1512909535.4,286046999.9,N
1512909555.2,286047003.8,N
1512909575.1,286047006.0,N
1512909576.0,286047006.0,N
1512909595.8,286047006.0,N
1512909615.6,286047003.3,N
1512909635.5,286047006.0,N
1512909655.3,286047003.1,N
1512909675.1,286047005.3,N
1512909695.9,286047004.8,N
1512909715.7,286047007.5,N
1512909735.6,286047005.3,N
1512909755.4,286047003.4,N
1512909775.2,286047002.2,N
1512909795.1,286047000.9,N
1512909796.0,286047000.9,N
1512909815.8,286047000.0,N
1512909835.6,286047001.1,N
1512909855.5,286047003.9,N
1512909875.3,286047004.7,N
1512909895.2,286047002.9,N
1512909915.9,286047003.0,N
1512909935.7,286047005.4,N
1512909955.6,286047007.5,N
1512909975.4,286047004.8,N
1512909995.2,286047005.5,N
1512910015.1,286047005.2,N
1512910016.0,286047005.2,N
1512910035.8,286047007.2,N
1512910055.7,286047005.3,N
1512910075.5,286047003.0,N
1512910095.3,286047003.6,N
1512910115.2,286047003.8,N
1512910135.0,286047004.2,N
1512910135.9,286047004.2,N
1512910155.8,286047001.9,N
1512910175.6,286046999.8,N
1512910195.4,286047000.6,N
1512910215.3,286046999.9,N
1512910235.1,286047004.0,N
1512910255.8,286047003.4,N
1512910275.7,286047003.9,N
1512910295.5,286047004.1,N
1512910315.4,286047003.1,N
1512910335.2,286047006.0,N
1512910355.0,286047006.4,Y
1512910355.9,286047006.4,P
1512910375.8,286047005.8,P
1512910395.6,286047007.4,P
1512910415.5,286047008.4,Y
1512910435.3,286047003.2,P
1512910455.1,286047004.2,P
1512910475.9,286047004.4,P
1512910495.7,286047004.8,Y
1512910515.5,286047000.6,P
1512910535.4,286047001.3,N
1512910555.2,286047004.4,N
1512910575.1,286047002.6,N
1512910576.0,286047002.6,N
1512910595.8,286047002.7,N
1512910615.6,286047000.7,N
1512910635.5,286047001.2,N
1512910655.3,286047000.5,N
1512910675.1,286046999.1,N
1512910695.9,286046997.9,N
1512910715.7,286046997.0,N
1512910735.6,286046997.2,N
1512910755.4,286046998.7,N
1512910775.2,286046999.1,N
1512910795.1,286046997.0,N
1512910796.0,286046997.0,N
